| time (UTC) | temp F | wind direction | speed MPH | gust MPH | rain 1hr in | rain 24hr in | rain mn in | humidity % | barometer mb |
| 20260505001527 | 68 | 167 | 2.0 | 5.0 | 0.00 | 0.00 | 0.00 | 38 | 1010.0 |
| 20260505000310 | 69 | 198 | 1.0 | 7.0 | 0.00 | 0.00 | 0.00 | 38 | 1009.8 |
| 20260505000024 | 68 | 161 | 1.0 | 7.0 | 0.00 | 0.00 | 0.00 | 37 | 1009.7 |
| 20260504234525 | 69 | 207 | 0.0 | 6.0 | 0.00 | 0.00 | 0.00 | 37 | 1009.6 |
| 20260504233043 | 70 | 217 | 3.0 | 9.0 | 0.00 | 0.00 | 0.00 | 36 | 1009.3 |
| 20260504231559 | 71 | 150 | 3.0 | 9.0 | 0.00 | 0.00 | 0.00 | 34 | 1009.3 |
| 20260504230018 | 72 | 266 | 3.0 | 8.0 | 0.00 | 0.00 | 0.00 | 33 | 1009.1 |
| 20260504224527 | 73 | 150 | 3.0 | 8.0 | 0.00 | 0.00 | 0.00 | 33 | 1009.0 |
| 20260504223041 | 73 | 181 | 5.0 | 15.0 | 0.00 | 0.00 | 0.00 | 32 | 1009.1 |
| 20260504221533 | 74 | 194 | 3.0 | 9.0 | 0.00 | 0.00 | 0.00 | 31 | 1009.2 |
| 20260504220305 | 74 | 270 | 3.0 | 7.0 | 0.00 | 0.00 | 0.00 | 31 | 1009.3 |
| 20260504220043 | 74 | 194 | 3.0 | 8.0 | 0.00 | 0.00 | 0.00 | 31 | 1009.2 |
| 20260504214616 | 74 | 137 | 3.0 | 10.0 | 0.00 | 0.00 | 0.00 | 31 | 1009.4 |
| 20260504213022 | 74 | 181 | 3.0 | 9.0 | 0.00 | 0.00 | 0.00 | 31 | 1009.5 |
| 20260504211534 | 74 | 205 | 3.0 | 12.0 | 0.00 | 0.00 | 0.00 | 31 | 1009.5 |
| 20260504210049 | 74 | 247 | 5.0 | 10.0 | 0.00 | 0.00 | 0.00 | 30 | 1009.5 |
| 20260504204558 | 74 | 252 | 5.0 | 13.0 | 0.00 | 0.00 | 0.00 | 30 | 1009.6 |
| 20260504203009 | 74 | 174 | 4.0 | 13.0 | 0.00 | 0.00 | 0.00 | 31 | 1009.6 |
| 20260504201528 | 74 | 115 | 3.0 | 9.0 | 0.00 | 0.00 | 0.00 | 31 | 1009.6 |
| 20260504200319 | 74 | 272 | 3.0 | 14.0 | 0.00 | 0.00 | 0.00 | 32 | 1009.7 |
| 20260504200018 | 74 | 115 | 4.0 | 14.0 | 0.00 | 0.00 | 0.00 | 32 | 1009.7 |
| 20260504194537 | 73 | 187 | 4.0 | 13.0 | 0.00 | 0.00 | 0.00 | 33 | 1009.8 |
| 20260504193118 | 73 | 209 | 3.0 | 13.0 | 0.00 | 0.00 | 0.00 | 32 | 1009.9 |
| 20260504191504 | 73 | 192 | 4.0 | 11.0 | 0.00 | 0.00 | 0.00 | 32 | 1010.1 |
| 20260504190006 | 73 | 290 | 3.0 | 13.0 | 0.00 | 0.00 | 0.00 | 32 | 1010.4 |
| 20260504184530 | 73 | 210 | 2.0 | 12.0 | 0.00 | 0.00 | 0.00 | 32 | 1010.6 |
| 20260504183036 | 72 | 214 | 4.0 | 8.0 | 0.00 | 0.00 | 0.00 | 33 | 1010.8 |
| 20260504181548 | 72 | 186 | 5.0 | 11.0 | 0.00 | 0.00 | 0.00 | 32 | 1011.1 |
| 20260504180319 | 71 | 175 | 6.0 | 12.0 | 0.00 | 0.00 | 0.00 | 33 | 1011.2 |
| 20260504180052 | 71 | 185 | 5.0 | 12.0 | 0.00 | 0.00 | 0.00 | 33 | 1011.3 |
| 20260504174504 | 71 | 203 | 3.0 | 11.0 | 0.00 | 0.00 | 0.00 | 32 | 1011.4 |
| 20260504173002 | 70 | 210 | 7.0 | 15.0 | 0.00 | 0.00 | 0.00 | 34 | 1011.6 |
| 20260504171508 | 70 | 105 | 6.0 | 13.0 | 0.00 | 0.00 | 0.00 | 34 | 1011.6 |
| 20260504160317 | 69 | 243 | 5.0 | 16.0 | 0.00 | 0.00 | 0.00 | 35 | 1012.8 |
| 20260504160111 | 68 | 181 | 8.0 | 16.0 | 0.00 | 0.00 | 0.00 | 35 | 1012.8 |
| 20260504140308 | 64 | 224 | 6.0 | 12.0 | 0.00 | 0.00 | 0.00 | 44 | 1013.6 |
| 20260504120306 | 54 | 181 | 3.0 | 10.0 | 0.00 | 0.00 | 0.00 | 63 | 1014.7 |
| 20260504120120 | 54 | 182 | 2.0 | 10.0 | 0.00 | 0.00 | 0.00 | 63 | 1014.7 |
| 20260504100310 | 48 | 172 | 1.0 | 7.0 | 0.00 | 0.00 | 0.00 | 62 | 1014.6 |
| 20260504081540 | 47 | 179 | 2.0 | 5.0 | 0.00 | 0.00 | 0.00 | 58 | 1014.2 |
| 20260504080304 | 47 | 215 | 0.0 | 1.0 | 0.00 | 0.00 | 0.00 | 59 | 1014.1 |
| 20260504050002 | 49 | 191 | 0.0 | 2.0 | 0.00 | 0.00 | 0.00 | 55 | 1013.5 |
| 20260504044516 | 49 | 244 | 0.0 | 3.0 | 0.00 | 0.00 | 0.00 | 54 | 1013.4 |
| 20260504043029 | 49 | 189 | 0.0 | 2.0 | 0.00 | 0.00 | 0.00 | 54 | 1013.4 |
| 20260504041525 | 49 | 202 | 0.0 | 2.0 | 0.00 | 0.00 | 0.00 | 54 | 1013.3 |
| 20260504040310 | 50 | 209 | 0.0 | 1.0 | 0.00 | 0.00 | 0.00 | 54 | 1013.2 |
| 20260504040024 | 50 | 179 | 0.0 | 1.0 | 0.00 | 0.00 | 0.00 | 53 | 1013.2 |
| 20260504034535 | 50 | 214 | 0.0 | 4.0 | 0.00 | 0.00 | 0.00 | 53 | 1013.1 |
| 20260504033052 | 50 | 139 | 0.0 | 2.0 | 0.00 | 0.00 | 0.00 | 52 | 1013.1 |
| 20260504031509 | 51 | 215 | 0.0 | 2.0 | 0.00 | 0.00 | 0.00 | 49 | 1012.9 |
| 20260504030019 | 51 | 181 | 0.0 | 5.0 | 0.00 | 0.00 | 0.00 | 47 | 1012.9 |
| 20260504024554 | 51 | 140 | 0.0 | 2.0 | 0.00 | 0.00 | 0.00 | 47 | 1013.0 |
| 20260504023051 | 52 | 141 | 0.0 | 2.0 | 0.00 | 0.00 | 0.00 | 47 | 1012.9 |
| 20260504021600 | 52 | 184 | 0.0 | 1.0 | 0.00 | 0.00 | 0.00 | 45 | 1012.9 |
| 20260504020300 | 53 | 195 | 0.0 | 3.0 | 0.00 | 0.00 | 0.00 | 43 | 1013.0 |
| 20260504014520 | 53 | 212 | 0.0 | 1.0 | 0.00 | 0.00 | 0.00 | 42 | 1012.9 |
| 20260504013041 | 53 | 169 | 0.0 | 2.0 | 0.00 | 0.00 | 0.00 | 41 | 1012.7 |
| 20260504011546 | 53 | 191 | 0.0 | 1.0 | 0.00 | 0.00 | 0.00 | 40 | 1012.5 |
| 20260504010100 | 54 | 214 | 0.0 | 2.0 | 0.00 | 0.00 | 0.00 | 39 | 1012.4 |
| 20260504004534 | 54 | 229 | 0.0 | 1.0 | 0.00 | 0.00 | 0.00 | 38 | 1012.1 |
| 20260504003029 | 55 | 153 | 0.0 | 1.0 | 0.00 | 0.00 | 0.00 | 37 | 1011.9 |